Westhampton Beach, NY

6:04 PM EDT on July 20, 2017 (GMT -0400)
The Gabreski

Weather History for KFOK - February, 2013

Change the Weather History Date:

Monday, February 18, 2013

  Actual Average Record
Temperature  
Mean Temperature 24 °F -  
Max Temperature 32 °F 38 °F 53 °F (2008)
Min Temperature 17 °F 22 °F -2 °F (2015)
Degree Days  
Heating Degree Days 40    
Moisture  
Dew Point 6 °F    
Average Humidity 47    
Maximum Humidity 71    
Minimum Humidity 35    
Precipitation  
Precipitation 0.00 in - - ()
Sea Level Pressure  
Sea Level Pressure 30.13 in    
Wind  
Wind Speed 20 mph (WNW)    
Max Wind Speed 32 mph    
Max Gust Speed 43 mph    
Visibility 10 miles    
Events      
Averages and records for this station are not official NWS values.
T = Trace of Precipitation, MM = Missing Value Source: NWS Daily Summary

Daily Weather History Graph

Daily Weather History Graph

Search for Another Location

Airport or City:

Trip Planner

Search our weather history database for the weather conditions in past years. The results will help you decide how hot, cold, wet, or windy it might be!

Date:

Astronomy

Feb. 18, 2013 Rise Set
Actual Time 6:40 AM EST 5:29 PM EST
Civil Twilight 6:12 AM EST 5:57 PM EST
Nautical Twilight 5:40 AM EST 6:29 PM EST
Astronomical Twilight 5:08 AM EST 7:00 PM EST
Moon 11:11 AM EST (2/18) 1:18 AM EST (2/18)
Length of Visible Light 11h 44m
Length of Day
10h 48m
First Quarter, 58% of the Moon is Illuminated
Feb 18
First Quarter
Feb 25
Full
Mar 4
Last Quarter
Mar 11
New
Mar 19
First Quarter

Hourly Weather History & Observations

Time (EST) Temp. Windchill Dew Point Humidity Pressure Visibility Wind Dir Wind Speed Gust Speed Precip Events Conditions
12:53 AM 18.0 °F -2.0 °F 1.9 °F 50% 29.90 in 10.0 mi WNW 32.2 mph 42.6 mph N/A   Clear
1:53 AM 19.0 °F 0.6 °F 1.9 °F 47% 29.92 in 10.0 mi WNW 27.6 mph 39.1 mph N/A   Clear
2:53 AM 19.0 °F 1.3 °F 1.9 °F 47% 29.94 in 10.0 mi WNW 25.3 mph 34.5 mph N/A   Clear
3:53 AM 19.0 °F 3.6 °F 1.9 °F 47% 29.97 in 10.0 mi WNW 18.4 mph 29.9 mph N/A   Clear
4:53 AM 19.0 °F 4.0 °F 1.9 °F 47% 30.01 in 10.0 mi NW 17.3 mph 36.8 mph N/A   Clear
5:53 AM 19.0 °F 4.0 °F 1.9 °F 47% 30.04 in 10.0 mi NW 17.3 mph 27.6 mph N/A   Clear
7:53 AM 19.9 °F 3.5 °F 3.9 °F 50% 30.12 in 10.0 mi WNW 21.9 mph 28.8 mph N/A   Clear
8:53 AM 21.9 °F 5.1 °F 3.9 °F 46% 30.14 in 10.0 mi WNW 25.3 mph 34.5 mph N/A   Clear
9:53 AM 25.0 °F 11.3 °F 6.1 °F 45% 30.17 in 10.0 mi NW 18.4 mph 27.6 mph N/A   Clear
10:53 AM 26.1 °F 11.0 °F 6.1 °F 43% 30.19 in 10.0 mi WNW 24.2 mph 27.6 mph N/A   Clear
11:53 AM 28.0 °F 17.5 °F 6.1 °F 39% 30.19 in 10.0 mi WNW 12.7 mph 25.3 mph N/A   Clear
12:53 PM 30.0 °F 16.9 °F 5.0 °F 35% 30.17 in 10.0 mi WNW 21.9 mph 29.9 mph N/A   Clear
1:53 PM 30.9 °F 19.4 °F 7.0 °F 37% 30.17 in 10.0 mi West 17.3 mph 28.8 mph N/A   Clear
2:53 PM 32.0 °F 21.6 °F 7.0 °F 35% 30.16 in 10.0 mi West 15.0 mph - N/A   Clear
3:53 PM 32.0 °F 21.6 °F 7.0 °F 35% 30.16 in 10.0 mi West 15.0 mph 21.9 mph N/A   Clear
4:53 PM 32.0 °F 21.6 °F 7.0 °F 35% 30.18 in 10.0 mi West 15.0 mph - N/A   Clear
5:53 PM 30.0 °F 22.4 °F 8.1 °F 40% 30.20 in 10.0 mi West 8.1 mph - N/A   Clear
6:53 PM 27.0 °F 23.0 °F 8.1 °F 45% 30.22 in 10.0 mi WSW 3.5 mph - N/A   Clear
7:53 PM 24.1 °F - 8.1 °F 51% 30.22 in 10.0 mi Calm Calm - N/A   Clear
8:53 PM 19.9 °F - 9.0 °F 62% 30.23 in 10.0 mi Calm Calm - N/A   Clear
9:53 PM 17.1 °F - 7.0 °F 65% 30.24 in 10.0 mi Calm Calm - N/A   Clear
10:53 PM 18.0 °F - 8.1 °F 65% 30.24 in 10.0 mi Calm Calm - N/A   Clear
11:53 PM 17.1 °F - 9.0 °F 71% 30.25 in 10.0 mi Calm Calm - N/A   Clear